Weather History for Leonardtown, MD

Change the Weather History Date:

Friday, February 8, 2013

  Actual Average (KNHK) Record (KNHK)
Temperature  
Mean Temperature 38 °F -  
Max Temperature 42 °F 39 °F 34 °F (2014)
Min Temperature 33 °F 23 °F 24 °F (2014)
Degree Days  
Heating Degree Days 28    
Moisture  
Dew Point 34 °F    
Average Humidity 84    
Maximum Humidity 100    
Minimum Humidity 56    
Precipitation  
Precipitation 0.00 in - - ()
Sea Level Pressure  
Sea Level Pressure 29.88 in    
Wind  
Wind Speed 5 mph (NW)    
Max Wind Speed 21 mph    
Max Gust Speed 41 mph    
Visibility 8 miles    
Events      
Averages and records for this station are not official NWS values.
T = Trace of Precipitation, MM = Missing Value Source: NWS Daily Summary

Daily Weather History Graph

Daily Weather History Graph

Search for Another Location

Airport:

Trip Planner

Search our weather history database for the weather conditions in past years. The results will help you decide how hot, cold, wet, or windy it might be!

Date:

Astronomy

Feb. 08, 2013 Rise Set
Actual Time 7:04 AM EST 5:37 PM EST
Civil Twilight 6:36 AM EST 6:04 PM EST
Nautical Twilight 6:05 AM EST 6:35 PM EST
Astronomical Twilight 5:34 AM EST 7:06 PM EST
Moon 5:30 AM EST (2/8) 4:08 PM EST (2/8)
Length of Visible Light 11h 27m
Length of Day
10h 32m
Waning Crescent, 3% of the Moon is Illuminated
Feb 8
Waning Crescent
Feb 10
New
Feb 17
First Quarter
Feb 25
Full
Mar 4
Last Quarter

Hourly Weather History & Observations

Time (EST) Temp. Windchill Dew Point Humidity Pressure Visibility Wind Dir Wind Speed Gust Speed Precip Events Conditions
12:03 AM 35.6 °F - 32.0 °F 87% 30.20 in 7.0 mi Calm Calm - N/A   Overcast
12:23 AM 35.6 °F - 32.0 °F 87% 30.19 in 7.0 mi Calm Calm - N/A   Overcast
12:43 AM 35.6 °F - 32.0 °F 87% 30.18 in 7.0 mi Calm Calm - N/A   Overcast
1:03 AM 35.6 °F - 32.0 °F 87% 30.17 in 7.0 mi Calm Calm - N/A   Overcast
1:23 AM 33.8 °F - 32.0 °F 93% 30.16 in 7.0 mi Calm Calm - N/A   Overcast
1:43 AM 33.8 °F - 32.0 °F 93% 30.15 in 5.0 mi Calm Calm - N/A   Overcast
2:03 AM 33.8 °F 30.8 °F 32.0 °F 93% 30.14 in 5.0 mi NNE 3.5 mph - N/A   Overcast
2:23 AM 33.8 °F - 32.0 °F 93% 30.12 in 5.0 mi Calm Calm - N/A   Overcast
2:43 AM 33.8 °F - 32.0 °F 93% 30.11 in 5.0 mi Calm Calm - N/A   Overcast
3:03 AM 33.8 °F - 32.0 °F 93% 30.10 in 4.0 mi Calm Calm - N/A   Overcast
3:23 AM 33.8 °F 30.8 °F 32.0 °F 93% 30.08 in 4.0 mi North 3.5 mph - N/A   Overcast
3:43 AM 33.8 °F - 33.8 °F 100% 30.06 in 5.0 mi Calm Calm - N/A   Overcast
4:03 AM 33.8 °F 30.8 °F 33.8 °F 100% 30.05 in 4.0 mi North 3.5 mph - N/A   Overcast
4:43 AM 33.8 °F 29.6 °F 33.8 °F 100% 30.01 in 4.0 mi North 4.6 mph - N/A   Overcast
5:03 AM 35.6 °F 32.8 °F 33.8 °F 93% 30.00 in 4.0 mi North 3.5 mph - N/A   Overcast
5:23 AM 35.6 °F 32.8 °F 33.8 °F 93% 29.99 in 3.0 mi North 3.5 mph - N/A   Overcast
5:43 AM 35.6 °F 32.8 °F 33.8 °F 93% 29.98 in 3.0 mi North 3.5 mph - N/A   Overcast
6:03 AM 35.6 °F 31.7 °F 33.8 °F 93% 29.97 in 4.0 mi North 4.6 mph - N/A   Overcast
7:03 AM 35.6 °F 30.7 °F 33.8 °F 93% 29.94 in 4.0 mi North 5.8 mph - N/A   Overcast
7:23 AM 35.6 °F 30.7 °F 33.8 °F 93% 29.93 in 4.0 mi North 5.8 mph - N/A   Overcast
7:43 AM 35.6 °F 31.7 °F 35.6 °F 100% 29.91 in 4.0 mi North 4.6 mph - N/A   Overcast
8:54 AM 37.4 °F 33.8 °F 35.6 °F 93% 29.86 in 7.0 mi North 4.6 mph - N/A   Overcast
9:33 AM 37.4 °F 33.8 °F 35.6 °F 93% 29.83 in 7.0 mi North 4.6 mph - N/A   Overcast
9:53 AM 37.4 °F 31.4 °F 35.6 °F 93% 29.81 in 7.0 mi North 8.1 mph - N/A   Overcast
10:13 AM 39.2 °F 35.0 °F 37.4 °F 93% 29.81 in 7.0 mi North 5.8 mph - N/A   Overcast
10:33 AM 39.2 °F 35.9 °F 37.4 °F 93% 29.81 in 10.0 mi NNW 4.6 mph - N/A   Overcast
10:53 AM 41.0 °F 35.8 °F 37.4 °F 87% 29.80 in 10.0 mi NNW 8.1 mph - N/A   Overcast
11:13 AM 41.0 °F 38.0 °F 37.4 °F 87% 29.79 in 10.0 mi NW 4.6 mph - N/A   Overcast
11:33 AM 41.0 °F 38.0 °F 37.4 °F 87% 29.78 in 10.0 mi NW 4.6 mph - N/A   Overcast
11:53 AM 39.2 °F 34.2 °F 37.4 °F 93% 29.78 in 7.0 mi NW 6.9 mph - N/A   Overcast
12:13 PM 39.2 °F 33.6 °F 37.4 °F 93% 29.77 in 5.0 mi NW 8.1 mph - N/A   Overcast
12:33 PM 41.0 °F 36.4 °F 37.4 °F 87% 29.75 in 7.0 mi NNW 6.9 mph - N/A   Overcast
12:53 PM 41.0 °F 37.1 °F 39.2 °F 93% 29.74 in 5.0 mi NNW 5.8 mph - N/A   Overcast
1:14 PM 41.0 °F 35.8 °F 39.2 °F 93% 29.74 in 10.0 mi NW 8.1 mph - N/A   Overcast
1:34 PM 41.0 °F 36.4 °F 39.2 °F 93% 29.73 in 10.0 mi NW 6.9 mph - N/A   Overcast
1:54 PM 41.0 °F 35.2 °F 39.2 °F 93% 29.73 in 10.0 mi NW 9.2 mph - N/A   Overcast
2:14 PM 42.8 °F 38.6 °F 39.2 °F 87% 29.72 in 10.0 mi NW 6.9 mph - N/A   Overcast
2:34 PM 42.8 °F 36.6 °F 39.2 °F 87% 29.71 in 10.0 mi WNW 11.5 mph 17.3 mph N/A   Overcast
2:54 PM 42.8 °F 38.0 °F 39.2 °F 87% 29.71 in 10.0 mi NW 8.1 mph 16.1 mph N/A   Overcast
3:14 PM 42.8 °F 40.1 °F 39.2 °F 87% 29.71 in 10.0 mi NW 4.6 mph - N/A   Overcast
3:34 PM 42.8 °F 38.0 °F 37.4 °F 81% 29.73 in 10.0 mi WNW 8.1 mph - N/A   Overcast
3:54 PM 42.8 °F 41.1 °F 37.4 °F 81% 29.72 in 10.0 mi NNW 3.5 mph - N/A   Overcast
4:14 PM 41.0 °F 35.2 °F 37.4 °F 87% 29.74 in 10.0 mi WNW 9.2 mph 17.3 mph N/A   Overcast
4:34 PM 41.0 °F 35.2 °F 37.4 °F 87% 29.75 in 7.0 mi WNW 9.2 mph - N/A   Overcast
4:54 PM 41.0 °F 34.7 °F 35.6 °F 81% 29.75 in 7.0 mi WNW 10.4 mph - N/A   Overcast
5:14 PM 41.0 °F 36.4 °F 35.6 °F 81% 29.76 in 7.0 mi WNW 6.9 mph 17.3 mph N/A   Overcast
5:34 PM 41.0 °F 36.4 °F 35.6 °F 81% 29.77 in 7.0 mi NW 6.9 mph - N/A   Overcast
5:54 PM 41.0 °F 34.7 °F 35.6 °F 81% 29.78 in 7.0 mi WNW 10.4 mph 16.1 mph N/A   Overcast
6:34 PM 39.2 °F 33.6 °F 35.6 °F 87% 29.79 in 10.0 mi WNW 8.1 mph - N/A   Mostly Cloudy
6:54 PM 39.2 °F 33.0 °F 35.6 °F 87% 29.79 in 10.0 mi WNW 9.2 mph - N/A   Mostly Cloudy
7:14 PM 41.0 °F 34.3 °F 33.8 °F 76% 29.79 in 10.0 mi West 11.5 mph 17.3 mph N/A   Overcast
7:34 PM 41.0 °F 35.8 °F 33.8 °F 76% 29.80 in 10.0 mi WNW 8.1 mph 16.1 mph N/A   Overcast
7:54 PM 41.0 °F 34.7 °F 32.0 °F 70% 29.80 in 10.0 mi WNW 10.4 mph - N/A   Scattered Clouds
8:14 PM 41.0 °F 33.9 °F 32.0 °F 70% 29.81 in 10.0 mi WNW 12.7 mph 21.9 mph N/A   Scattered Clouds
8:34 PM 41.0 °F 35.2 °F 32.0 °F 70% 29.81 in 10.0 mi WNW 9.2 mph 17.3 mph N/A   Overcast
8:54 PM 41.0 °F 33.5 °F 32.0 °F 70% 29.82 in 10.0 mi West 13.8 mph 24.2 mph N/A   Overcast
9:14 PM 41.0 °F 33.5 °F 30.2 °F 65% 29.83 in 10.0 mi WNW 13.8 mph 31.1 mph N/A   Overcast
9:35 PM 41.0 °F 32.2 °F 26.6 °F 57% 29.83 in 10.0 mi WNW 18.4 mph 34.5 mph N/A   Overcast
9:55 PM 41.0 °F 34.3 °F 26.6 °F 57% 29.85 in 10.0 mi WNW 11.5 mph 33.4 mph N/A   Overcast
10:15 PM 39.2 °F 32.0 °F 24.8 °F 56% 29.86 in 10.0 mi WNW 11.5 mph 32.2 mph N/A   Overcast
10:35 PM 37.4 °F 27.8 °F 24.8 °F 60% 29.87 in 10.0 mi WNW 17.3 mph 31.1 mph N/A   Overcast
10:55 PM 37.4 °F 28.2 °F 23.0 °F 56% 29.88 in 10.0 mi WNW 16.1 mph 41.4 mph N/A   Mostly Cloudy
11:15 PM 37.4 °F 26.9 °F 23.0 °F 56% 29.88 in 10.0 mi West 20.7 mph 33.4 mph N/A   Mostly Cloudy
11:35 PM 35.6 °F 25.2 °F 21.2 °F 56% 29.89 in 10.0 mi WNW 18.4 mph 34.5 mph N/A   Scattered Clouds
11:55 PM 35.6 °F 25.9 °F 21.2 °F 56% 29.91 in 10.0 mi WNW 16.1 mph 29.9 mph N/A   Scattered Clouds